Вернуться в каталог

THORAD AGENA D DEB

АктивенSSO
NORAD 5388·DEBRIS·🇺🇸 United States

Запущен Apr 8, 1970 с Vandenberg Space Force Base

Loading…

Ближайшие Пролёты (ближайшие 24 часа)

TLE

СвежийSource: Space-Track

Эпоха: Sep 14, 2026, 07:11 UTC

1 05388U 70025KT  26257.29978275  .00000508  00000-0  98668-3 0  9992
2 05388  99.9313 194.8769 0136232 310.8533 204.0193 13.38360060737763

Отслеживайте THORAD AGENA D DEB в реальном времени с AllMySat

Download on the App Store